sat.trackr.live / text

‹ back to catalog

ONEWEB-0095

NORAD 45436 · 2020-020N

PAYLOAD ACTIVE UNKNOWN

§ Identity

Operator
Country
UK
Launch date
2020-03-21
Launch site
TYMSC
Launch vehicle
Mass (kg)
RCS (m²)

Purposes: comms

External: N2YO · Heavens-Above · Gunter

§ Orbital elements

Epoch: 2026-09-14T05:42:19.398528Z

Period
109.80 min
Inclination
87.8961°
Eccentricity
0.0001425
Mean motion
13.11416151 rev/d
Perigee alt
1,216.6 km
Apogee alt
1,218.8 km
Semi-major
7,595.8 km
B*
-6.7688e-4
RAAN
3.3640°
Arg perigee
122.1586°
Mean anomaly
237.9680°
Rev number
31,434

§ Raw data

ONEWEB-00951 45436U 20020N   26257.23772452 -.00000227  00000+0 -67688-3 0  99902 45436  87.8961   3.3640 0001425 122.1586 237.9680 13.11416151314340

JSON: /api/v1/satellites/45436 · /tle

For live sub-satellite position, see the globe view (requires WebGL).

§ Visibility from observer

Set your observer location to see the next 7 days of passes ≥ 10°. The values pass through the URL so the page stays shareable.

No JS? Fill the form by hand. The geolocation button needs JavaScript.